Location: Abraham Lincoln Continuation High School
(33.9711°N, 117.3662°W)
Time: 10:38:30
(UTC+00:00)

X-37B - Pass Details

Date: 18 January 2021
Orbit: 383 x 391 km, 45.0° (Epoch: 27 February)

Event Time Altitude Azimuth Distance (km) Brightness Sun altitude
Rises 02:25:20 0° 237° (WSW) 2,261 5.9 -16.4°
Reaches altitude 10° 02:27:24 10° 238° (WSW) 1,411 4.6 -16.8°
Maximum altitude 02:30:34 84° 326° (NNW) 395 0.5 -17.4°
Enters shadow 02:31:09 56° 47° (NE) 467 0.6 -17.6°
